Regional Weather Roundup
Issued by NWS

Home | Current Version | Previous Version | Graphics & Text | Print | Product List | Glossary On
Versions: 1 2 3 4 5 6 7 8 9 10 11 12 13 14 15 16 17 18 19 20 21 22 23 24 25 26 27 28 29 30 31 32 33 34 35 36 37 38 39 40 41 42 43 44 45 46 47 48 49 50
000
ASUS43 KFSD 131710
RWRSD

WEATHER ROUNDUP FOR SOUTH DAKOTA
NATIONAL WEATHER SERVICE SIOUX FALLS SD
1100 AM CST WED DEC 13 2017

NOTE: "FAIR" INDICATES FEW OR NO CLOUDS BELOW 12,000 FEET WITH NO
SIGNIFICANT WEATHER AND/OR OBSTRUCTIONS TO VISIBILITY.


SDZ001>005-009-010-012>017-131800-
NORTHWEST AND NORTH CENTRAL SOUTH DAKOTA

CITY           SKY/WX    TMP DP  RH WIND       PRES   REMARKS
BUFFALO          N/A     37  25  61 NW25G32   30.01R
FAITH            N/A     39  27  62 NW29G37   29.99R
MOBRIDGE       CLOUDY    40  29  64 NW20G29   29.89R
$$

SDZ012>016-024>037-041>051-057-063-072>074-131800-
SOUTHWEST AND SOUTH CENTRAL SOUTH DAKOTA

CITY           SKY/WX    TMP DP  RH WIND       PRES   REMARKS
RAPID CTY ARPT SUNNY     44  21  40 NW30G45   30.04R
PIERRE         SUNNY     42  29  59 NW23G36   29.93R
CUSTER         CLOUDY    38  11  32 NW13G18   30.03R
ELLSWORTH AFB  SUNNY     44  21  40 NW32G43   30.02
PHILIP         SUNNY     44  26  49 NW30G39   30.01R
PINE RIDGE     SUNNY     43  21  41 NW14G22   30.07R
SPEARFISH      FAIR      39  19  45 W21G30    30.10R
WINNER         FAIR      45  27  49 NW31G41   29.95R
$$

SDZ004>011-016>023-039-040-131800-
NORTHEAST SOUTH DAKOTA

CITY           SKY/WX    TMP DP  RH WIND       PRES   REMARKS
ABERDEEN       CLOUDY    37  29  72 NW24G32   29.85R
WATERTOWN      CLOUDY    34  30  85 NW20G31   29.74R WCI  23
BROOKINGS      CLOUDY    36  28  73 NW29      29.72S
SISSETON         N/A     34  30  85 N26G35    29.76R WCI  21
$$

SDZ017-020-022-023-036>040-048>070-131800-
SOUTHEAST SOUTH DAKOTA

CITY           SKY/WX    TMP DP  RH WIND       PRES   REMARKS
SIOUX FALLS    CLOUDY    39  32  76 NW28G35   29.77R
HURON          CLOUDY    39  30  70 NW30G37   29.84R
CHAMBERLAIN    MOSUNNY   44  31  60 NW28G37   29.92R
MITCHELL       CLOUDY    40  30  67 N24G36    29.87R
YANKTON        MOSUNNY   43  30  60 NW32G43   29.81R
$$

ABBREVIATIONS USED IN REMARKS
   TC - TEMPERATURE IN CELSIUS
  WCI - WIND CHILL INDEX
   HX - HEAT INDEX
  VSB - VISIBILITY




USA.gov is the U.S. government's official web portal to all federal, state and local government web resources and services.